Crockett, TX

2:04 PM CDT on August 24, 2016 (GMT -0500)
Crockett

Weather History for KDKR - October, 2012

Change the Weather History Date:

Thursday, October 4, 2012

  Actual Average (KLFK) Record (KLFK)
Temperature  
Mean Temperature 75 °F 71 °F  
Max Temperature 86 °F 83 °F 99 °F (1924)
Min Temperature 64 °F 60 °F 39 °F (1987)
Degree Days  
Heating Degree Days 0 1  
Month to date heating degree days 4  
Since 1 July heating degree days 8  
Cooling Degree Days 10 7  
Month to date cooling degree days 30  
Year to date cooling degree days 2427  
Growing Degree Days 25 (Base 50)    
Moisture  
Dew Point 62 °F    
Average Humidity 69    
Maximum Humidity 94    
Minimum Humidity 45    
Precipitation  
Precipitation 0.00 in 0.13 in 4.26 in (1949)
Month to date precipitation 0.50  
Year to date precipitation 35.17  
Snow  
Snow 0.00 in - - ()
Month to date snowfall  
Since 1 July snowfall  
Since 1 September snowfall  
Snow Depth -    
Sea Level Pressure  
Sea Level Pressure 30.14 in    
Wind  
Wind Speed 2 mph (SSE)    
Max Wind Speed 12 mph    
Max Gust Speed -    
Visibility 10 miles    
Events      
T = Trace of Precipitation, MM = Missing Value Source: NWS Daily Summary

Daily Weather History Graph

Daily Weather History Graph

Search for Another Location

Airport or City:

Trip Planner

Search our weather history database for the weather conditions in past years. The results will help you decide how hot, cold, wet, or windy it might be!

Date:

Astronomy

Oct. 04, 2012 Rise Set
Actual Time 7:17 AM CDT 7:02 PM CDT
Civil Twilight 6:53 AM CDT 7:26 PM CDT
Nautical Twilight 6:25 AM CDT 7:54 PM CDT
Astronomical Twilight 5:57 AM CDT 8:22 PM CDT
Moon 9:56 PM CDT (10/4) 11:18 AM CDT (10/4)
Length of Visible Light 12h 33m
Length of Day
11h 44m
Waning Gibbous, 82% of the Moon is Illuminated
Oct 4
Waning Gibbous
Oct 8
Last Quarter
Oct 15
New
Oct 21
First Quarter
Oct 29
Full

Hourly Weather History & Observations

Time (CDT) Temp. Heat Index Dew Point Humidity Pressure Visibility Wind Dir Wind Speed Gust Speed Precip Events Conditions
12:15 AM 66.2 °F - 60.8 °F 83% 30.10 in 10.0 mi Calm Calm - N/A   Clear
12:35 AM 66.2 °F - 60.8 °F 83% 30.10 in 10.0 mi Calm Calm - N/A   Clear
12:55 AM 66.2 °F - 60.8 °F 83% 30.10 in 10.0 mi Calm Calm - N/A   Clear
1:15 AM 66.2 °F - 60.8 °F 83% 30.10 in 10.0 mi Calm Calm - N/A   Clear
1:35 AM 66.2 °F - 60.8 °F 83% 30.10 in 10.0 mi Calm Calm - N/A   Clear
1:55 AM 66.2 °F - 60.8 °F 83% 30.11 in 10.0 mi Calm Calm - N/A   Clear
2:15 AM 64.4 °F - 60.8 °F 88% 30.11 in 10.0 mi Calm Calm - N/A   Clear
2:35 AM 64.4 °F - 62.6 °F 94% 30.10 in 10.0 mi Calm Calm - N/A   Clear
2:55 AM 66.2 °F - 62.6 °F 88% 30.10 in 10.0 mi Calm Calm - N/A   Clear
3:15 AM 64.4 °F - 62.6 °F 94% 30.10 in 10.0 mi Calm Calm - N/A   Clear
3:35 AM 66.2 °F - 62.6 °F 88% 30.10 in 10.0 mi ESE 3.5 mph - N/A   Clear
3:55 AM 64.4 °F - 62.6 °F 94% 30.11 in 10.0 mi ESE 5.8 mph - N/A   Clear
4:15 AM 64.4 °F - 62.6 °F 94% 30.11 in 10.0 mi Calm Calm - N/A   Clear
4:35 AM 64.4 °F - 60.8 °F 88% 30.12 in 10.0 mi Calm Calm - N/A   Clear
4:55 AM 64.4 °F - 60.8 °F 88% 30.12 in 10.0 mi Calm Calm - N/A   Clear
5:15 AM 64.4 °F - 60.8 °F 88% 30.13 in 10.0 mi Calm Calm - N/A   Clear
5:35 AM 64.4 °F - 60.8 °F 88% 30.13 in 10.0 mi Calm Calm - N/A   Clear
5:55 AM 64.4 °F - 60.8 °F 88% 30.14 in 10.0 mi Calm Calm - N/A   Clear
6:15 AM 64.4 °F - 60.8 °F 88% 30.14 in 10.0 mi Calm Calm - N/A   Clear
6:35 AM 64.4 °F - 60.8 °F 88% 30.15 in 10.0 mi Calm Calm - N/A   Clear
6:55 AM 64.4 °F - 60.8 °F 88% 30.15 in 10.0 mi Calm Calm - N/A   Clear
7:15 AM 64.4 °F - 60.8 °F 88% 30.15 in 10.0 mi Calm Calm - N/A   Clear
7:35 AM 64.4 °F - 60.8 °F 88% 30.16 in 10.0 mi Calm Calm - N/A   Clear
7:55 AM 64.4 °F - 60.8 °F 88% 30.16 in 10.0 mi Calm Calm - N/A   Clear
8:15 AM 66.2 °F - 60.8 °F 83% 30.17 in 10.0 mi Calm Calm - N/A   Clear
8:35 AM 68.0 °F - 60.8 °F 78% 30.17 in 10.0 mi Calm Calm - N/A   Clear
8:55 AM 69.8 °F - 62.6 °F 78% 30.18 in 10.0 mi Calm Calm - N/A   Clear
9:15 AM 71.6 °F - 62.6 °F 73% 30.18 in 10.0 mi SE 4.6 mph - N/A   Clear
9:35 AM 73.4 °F - 62.6 °F 69% 30.18 in 10.0 mi Calm Calm - N/A   Clear
9:55 AM 75.2 °F - 62.6 °F 65% 30.18 in 10.0 mi SSE 3.5 mph - N/A   Clear
10:15 AM 75.2 °F - 62.6 °F 65% 30.18 in 10.0 mi SSE 5.8 mph - N/A   Clear
10:35 AM 77.0 °F - 62.6 °F 61% 30.18 in 10.0 mi Calm Calm - N/A   Clear
10:55 AM 78.8 °F - 62.6 °F 57% 30.18 in 10.0 mi SSE 9.2 mph - N/A   Clear
11:15 AM 80.6 °F 81.8 °F 62.6 °F 54% 30.19 in 10.0 mi SE 8.1 mph - N/A   Clear
11:35 AM 80.6 °F 82.3 °F 64.4 °F 58% 30.18 in 10.0 mi South 6.9 mph - N/A   Clear
11:55 AM 80.6 °F 82.3 °F 64.4 °F 58% 30.18 in 10.0 mi South 9.2 mph - N/A   Clear
12:15 PM 82.4 °F 83.4 °F 62.6 °F 51% 30.18 in 10.0 mi SSE 6.9 mph - N/A   Clear
12:35 PM 82.4 °F 83.9 °F 64.4 °F 54% 30.17 in 10.0 mi ESE 10.4 mph - N/A   Clear
12:55 PM 82.4 °F 83.4 °F 62.6 °F 51% 30.17 in 10.0 mi SE 3.5 mph - N/A   Clear
1:15 PM 84.2 °F 85.0 °F 62.6 °F 48% 30.16 in 10.0 mi SE 8.1 mph - N/A   Clear
1:35 PM 84.2 °F 85.6 °F 64.4 °F 51% 30.15 in 10.0 mi SE 4.6 mph - N/A   Clear
1:55 PM 84.2 °F 85.0 °F 62.6 °F 48% 30.14 in 10.0 mi South 11.5 mph - N/A   Clear
2:15 PM 84.2 °F 85.0 °F 62.6 °F 48% 30.14 in 10.0 mi South 9.2 mph - N/A   Clear
2:35 PM 84.2 °F 85.0 °F 62.6 °F 48% 30.14 in 10.0 mi South 8.1 mph - N/A   Clear
2:55 PM 86.0 °F 86.6 °F 62.6 °F 45% 30.13 in 10.0 mi SSE 4.6 mph - N/A   Clear
3:15 PM 86.0 °F 86.6 °F 62.6 °F 45% 30.13 in 10.0 mi SSE 3.5 mph - N/A   Clear
3:35 PM 86.0 °F 86.6 °F 62.6 °F 45% 30.13 in 10.0 mi SSE 3.5 mph - N/A   Clear
3:55 PM 86.0 °F 86.6 °F 62.6 °F 45% 30.13 in 10.0 mi Calm Calm - N/A   Clear
4:15 PM 84.2 °F 85.0 °F 62.6 °F 48% 30.12 in 10.0 mi South 6.9 mph - N/A   Clear
4:35 PM 84.2 °F 85.0 °F 62.6 °F 48% 30.12 in 10.0 mi SSE 5.8 mph - N/A   Clear
4:55 PM 84.2 °F 85.0 °F 62.6 °F 48% 30.12 in 10.0 mi South 9.2 mph - N/A   Clear
5:15 PM 84.2 °F 84.4 °F 60.8 °F 45% 30.12 in 10.0 mi Calm Calm - N/A   Clear
5:35 PM 84.2 °F 84.4 °F 60.8 °F 45% 30.12 in 10.0 mi Calm Calm - N/A   Clear
5:55 PM 84.2 °F 84.4 °F 60.8 °F 45% 30.12 in 10.0 mi Calm Calm - N/A   Clear
6:15 PM 82.4 °F 82.9 °F 60.8 °F 48% 30.11 in 10.0 mi SSE 3.5 mph - N/A   Clear
6:35 PM 80.6 °F 81.5 °F 60.8 °F 51% 30.12 in 10.0 mi Calm Calm - N/A   Clear
6:55 PM 80.6 °F 81.8 °F 62.6 °F 54% 30.12 in 10.0 mi Calm Calm - N/A   Clear
7:15 PM 78.8 °F - 62.6 °F 57% 30.12 in 10.0 mi Calm Calm - N/A   Clear
7:35 PM 78.8 °F - 62.6 °F 57% 30.11 in 10.0 mi Calm Calm - N/A   Clear
7:55 PM 78.8 °F - 62.6 °F 57% 30.12 in 10.0 mi SSE 3.5 mph - N/A   Clear
8:15 PM 78.8 °F - 62.6 °F 57% 30.13 in 10.0 mi Calm Calm - N/A   Clear
8:35 PM 77.0 °F - 62.6 °F 61% 30.13 in 10.0 mi Calm Calm - N/A   Clear
8:55 PM 75.2 °F - 62.6 °F 65% 30.14 in 10.0 mi Calm Calm - N/A   Clear
9:15 PM 75.2 °F - 64.4 °F 69% 30.14 in 10.0 mi Calm Calm - N/A   Clear
9:55 PM 73.4 °F - 64.4 °F 73% 30.15 in 10.0 mi Calm Calm - N/A   Clear
10:15 PM 73.4 °F - 64.4 °F 73% 30.15 in 10.0 mi Calm Calm - N/A   Clear
10:35 PM 73.4 °F - 64.4 °F 73% 30.15 in 10.0 mi Calm Calm - N/A   Clear
10:55 PM 71.6 °F - 64.4 °F 78% 30.15 in 10.0 mi Calm Calm - N/A   Clear
11:15 PM 71.6 °F - 64.4 °F 78% 30.15 in 10.0 mi Calm Calm - N/A   Clear
11:35 PM 69.8 °F - 64.4 °F 83% 30.15 in 10.0 mi Calm Calm - N/A   Clear
11:55 PM 69.8 °F - 64.4 °F 83% 30.15 in 10.0 mi Calm Calm - N/A   Clear